星链-34248 (STARLINK-34248)

导读

STARLINK-34248是由美国于2025年7月26日发射的SpaceX星链卫星,属于星链星座组网计划的一环。星链系统旨在构建全球卫星互联网,为偏远地区、海洋航空等场景提供宽带通信服务,该卫星入轨后将补充星链星座的通信覆盖能力,推进星座部署进程。

Basic Information
目录编号:
64928
目录名称:
STARLINK-34248
国际标识:
2025-157AA
轨道中心:
EARTH
卫星名称:
星链-34248
卫星全名:
星链-34248 (STARLINK-34248)
卫星状态:
在轨 (已飞行405 天)
发射日期:
2025-07-26 UTC
国别 :
美国 (US)
星等 :
--
Orbit Information
数据来源 国际轨道数据
星历时间: 2026-09-03T17:25:43+0800
1天前
查看轨道信息
半长轴: 6840.824km
偏心率: 0.0001452
轨道倾角: 53.157°
近地点辐角 74.411°
升交点赤经 237.933°
平近点角 285.705°
近地点: 461.693km
远地点: 463.681km
周期: 93.847分钟
每日圈数: 15.344056
Detailed Information
固有亮度:
5
最大亮度:
2.5
卫星平台:
Starlink V1.0
覆盖范围:
全球
运营商:
太空探索技术公司
运营商所在国:
美国
制造商(研发单位):
太空探索技术公司
制造商所在国:
美国
使用方式:
暂无
Satellite Introduction
Starlink 计划是 SpaceX 推出的全球卫星互联网项目,通过发射低轨道卫星,为全球尤其是偏远地区提供高速、低延迟的互联网服务。自 2019 年起,Starlink 已部署数千颗卫星,旨在缩小全球数字鸿沟,推动互联网普及。该项目还为军事、航空等行业提供通信支持,带来广泛经济效益。
2D Orbit Map
3D Orbit Map
Orbit Altitude Analysis Chart
Orbit Inclination Analysis Chart
Orbit Comprehensive Analysis Chart
View Comprehensive Chart
Conjunction Data List
Event ID Objects TCA Miss Dist (km) Collision Risk Probability Collision Risk Index (CRI) Action
CDM_260904-170305-382606-492821
2026-09-04T
17:03:34+0000
2.757 km
极远距离
5.04147E-7 极低风险 0.29